User: anonymous   Login
Location: Lone Pine Community Mobile Home Park
(42.7367°N, 73.8567°W)
Time: 11:23:42
(UTC+00:00)
Language:

NOSS 3-4 (A) - Orbit

View from above orbital plane
View from above orbital plane
View from above satellite
View from above satellite

Ground track
Ground track

The orbit data is extracted from the following two-line orbital elements,

1 31701U 07027A   20366.15255171 0.00000000  00000-0  00000-0 0    05
2 31701  63.3690  24.9542 0303340  20.5095 339.4905 13.40811098    09
Epoch (UTC): 31 December 2020 03:39:40
Eccentricity: 0.0303340
inclination: 63.3690°
perigee height: 879 km
apogee height: 1333 km
right ascension of ascending node: 24.9542°
argument of perigee: 20.5095°
revolutions per day: 13.40811098
mean anomaly at epoch: 339.4905°
orbit number at epoch: 0

The dashed part of the orbit path shows where the satellite is in the earth's shadow,  

DLR